Terminal Aerodrome Forecast
Issued by NWS

Home | Current Version | Previous Version | Text Only | Print | Product List | Glossary On
Versions: 1 2 3 4 5 6 7 8 9 10 11 12 13
000
FTUS43 KEAX 032320
TAFMKC
TAF
KMKC 032320Z 0400/0424 17005KT P6SM FEW250
     FM041700 18012G18KT P6SM FEW250=

USA.gov is the U.S. government's official web portal to all federal, state and local government web resources and services.